Location: Harrison
(47.4490°N, 116.7734°W)
Time: 17:10:49
(UTC+00:00)

EO-79 - Visible Passes

Search period start: 08 September 2024 00:00
Search period end: 18 September 2024 00:00
Orbit: 554 x 568 km, 98.1° (Epoch: 07 September)

Date Brightness Start Highest point End Pass type
(mag) Time Alt. Az. Time Alt. Az. Time Alt. Az.
08 Sep ? 10:57:55 10° NNE 11:01:45 39° E 11:04:02 20° SSE visible
08 Sep ? 12:33:20 10° NNW 12:36:25 21° WNW 12:39:30 10° WSW visible
09 Sep ? 10:57:04 10° NNE 11:00:52 38° E 11:03:04 21° SSE visible
09 Sep ? 12:32:26 10° NNW 12:35:33 22° WNW 12:38:40 10° WSW visible
10 Sep ? 10:56:10 10° NNE 10:59:56 37° E 11:02:04 21° SSE visible
10 Sep ? 12:31:29 10° NNW 12:34:39 22° WNW 12:37:47 10° WSW visible
11 Sep ? 10:55:13 10° NNE 10:58:58 36° E 11:01:00 22° SSE visible
11 Sep ? 12:30:30 10° NNW 12:33:41 23° WNW 12:36:52 10° WSW visible
12 Sep ? 10:54:14 10° NNE 10:57:57 35° E 10:59:54 22° SSE visible
12 Sep ? 12:29:28 10° NNW 12:32:42 23° WNW 12:35:50 10° WSW visible
13 Sep ? 10:53:12 10° NNE 10:56:54 34° E 10:58:46 22° SE visible
13 Sep ? 12:28:23 10° N 12:31:39 24° WNW 12:34:41 11° WSW visible
14 Sep ? 10:52:08 10° NNE 10:55:48 33° E 10:57:34 23° SE visible
14 Sep ? 12:27:15 10° N 12:30:34 25° WNW 12:33:29 12° WSW visible
15 Sep ? 10:51:01 10° NNE 10:54:40 32° E 10:56:19 23° SE visible
15 Sep ? 12:26:06 10° N 12:29:26 25° WNW 12:32:15 13° WSW visible
16 Sep ? 10:49:52 10° NNE 10:53:28 31° E 10:55:03 23° SE visible
16 Sep ? 12:24:53 10° N 12:28:16 26° WNW 12:30:57 13° WSW visible
17 Sep ? 10:48:40 10° NE 10:52:14 29° E 10:53:43 23° SE visible
17 Sep ? 12:23:38 10° N 12:27:03 27° WNW 12:29:37 14° WSW visible
